Location: Maccacari
(45.1333°N, 11.1333°E)
Time: 11:02:20
(UTC+00:00)

A-11 Canister half - Pass Details

Date: 21 January 2021
Orbit: 1524 x 1684 km, 47.3° (Epoch: 24 February)

Event Time Altitude Azimuth Distance (km) Brightness Sun altitude
Rises 17:36:01 0° 274° (W) 4,716 13.1 -15.4°
Reaches altitude 10° 17:39:03 10° 275° (W) 3,749 12.2 -15.9°
Maximum altitude 17:48:37 79° 3° (N) 1,626 9.0 -17.6°
Enters shadow 17:55:04 25° 88° (E) 2,823 9.8 -18.7°
